Time,TemperatureF,DewpointF,PressureIn,WindDirection,WindDirectionDegrees,WindSpeedMPH,WindSpeedGustMPH,Humidity,HourlyPrecipIn,Conditions,Clouds,dailyrainin,SoftwareType,DateUTC
2013-01-16 00:00:00,33.9,32.0,30.68,East,90,1.0,2.0,93,0.00,,,0.02,weatherlink.com 1.10,2013-01-16 08:00:00,
2013-01-16 00:15:00,34.0,32.0,30.69,SE,130,0.0,2.0,93,0.00,,,0.00,weatherlink.com 1.10,2013-01-16 08:15:00,
2013-01-16 00:30:00,34.1,32.0,30.69,SSE,153,0.0,2.0,93,0.00,,,0.00,weatherlink.com 1.10,2013-01-16 08:30:00,
2013-01-16 00:45:00,34.1,32.0,30.69,South,175,0.0,2.0,93,0.00,,,0.00,weatherlink.com 1.10,2013-01-16 08:45:00,
2013-01-16 01:00:00,33.8,32.0,30.69,South,175,0.0,0.0,93,0.00,,,0.00,weatherlink.com 1.10,2013-01-16 09:00:00,
2013-01-16 01:15:00,33.9,32.0,30.69,South,175,0.0,2.0,93,0.00,,,0.00,weatherlink.com 1.10,2013-01-16 09:15:00,
2013-01-16 01:30:00,33.7,32.0,30.69,South,175,0.0,2.0,93,0.00,,,0.00,weatherlink.com 1.10,2013-01-16 09:30:00,
2013-01-16 01:45:00,33.6,32.0,30.69,South,175,2.0,3.0,93,0.00,,,0.00,weatherlink.com 1.10,2013-01-16 09:45:00,
2013-01-16 02:00:00,33.6,32.0,30.69,ESE,123,0.0,2.0,93,0.00,,,0.00,weatherlink.com 1.10,2013-01-16 10:00:00,
2013-01-16 02:15:00,33.5,32.0,30.69,ESE,123,0.0,1.0,93,0.00,,,0.00,weatherlink.com 1.10,2013-01-16 10:15:00,
2013-01-16 02:30:00,33.3,32.0,30.69,ESE,123,1.0,2.0,93,0.00,,,0.00,weatherlink.com 1.10,2013-01-16 10:30:00,
2013-01-16 02:45:00,33.3,32.0,30.70,ESE,123,0.0,1.0,93,0.00,,,0.00,weatherlink.com 1.10,2013-01-16 10:45:00,
2013-01-16 03:00:00,33.1,31.0,30.70,ESE,123,0.0,0.0,93,0.00,,,0.00,weatherlink.com 1.10,2013-01-16 11:00:00,
2013-01-16 03:15:00,33.0,31.0,30.70,ESE,123,0.0,1.0,93,0.00,,,0.00,weatherlink.com 1.10,2013-01-16 11:15:00,
2013-01-16 03:30:00,32.9,31.0,30.69,ESE,123,0.0,1.0,93,0.00,,,0.00,weatherlink.com 1.10,2013-01-16 11:30:00,
2013-01-16 03:45:00,32.8,31.0,30.69,ESE,123,0.0,1.0,93,0.00,,,0.00,weatherlink.com 1.10,2013-01-16 11:45:00,
2013-01-16 04:00:00,32.7,31.0,30.69,ESE,123,0.0,2.0,93,0.00,,,0.00,weatherlink.com 1.10,2013-01-16 12:00:00,
2013-01-16 04:15:00,32.5,31.0,30.68,ESE,123,0.0,0.0,93,0.00,,,0.00,weatherlink.com 1.10,2013-01-16 12:15:00,
2013-01-16 04:30:00,32.4,31.0,30.67,ESE,123,1.0,2.0,93,0.00,,,0.00,weatherlink.com 1.10,2013-01-16 12:30:00,
2013-01-16 04:45:00,32.5,31.0,30.68,ESE,123,0.0,1.0,93,0.00,,,0.00,weatherlink.com 1.10,2013-01-16 12:45:00,
2013-01-16 05:00:00,32.5,31.0,30.67,ESE,123,2.0,2.0,93,0.00,,,0.00,weatherlink.com 1.10,2013-01-16 13:00:00,
2013-01-16 05:15:00,32.8,31.0,30.67,ESE,123,0.0,2.0,93,0.00,,,0.00,weatherlink.com 1.10,2013-01-16 13:15:00,
2013-01-16 05:30:00,32.6,31.0,30.67,ESE,123,0.0,0.0,93,0.00,,,0.00,weatherlink.com 1.10,2013-01-16 13:30:00,
2013-01-16 05:45:00,32.5,31.0,30.66,ESE,123,0.0,0.0,92,0.00,,,0.00,weatherlink.com 1.10,2013-01-16 13:45:00,
2013-01-16 06:00:00,32.3,31.0,30.66,ESE,123,0.0,2.0,93,0.00,,,0.00,weatherlink.com 1.10,2013-01-16 14:00:00,
2013-01-16 06:15:00,32.1,30.0,30.65,ESE,123,0.0,1.0,93,0.00,,,0.00,weatherlink.com 1.10,2013-01-16 14:15:00,
2013-01-16 06:30:00,32.4,31.0,30.64,ESE,123,0.0,3.0,93,0.00,,,0.00,weatherlink.com 1.10,2013-01-16 14:30:00,
2013-01-16 06:45:00,32.6,31.0,30.64,ESE,123,0.0,1.0,93,0.00,,,0.00,weatherlink.com 1.10,2013-01-16 14:45:00,
2013-01-16 07:00:00,32.6,31.0,30.65,ESE,123,0.0,2.0,93,0.00,,,0.00,weatherlink.com 1.10,2013-01-16 15:00:00,
2013-01-16 07:15:00,32.6,31.0,30.65,ESE,123,0.0,0.0,92,0.00,,,0.00,weatherlink.com 1.10,2013-01-16 15:15:00,
2013-01-16 07:30:00,32.6,31.0,30.65,ESE,123,0.0,1.0,92,0.00,,,0.00,weatherlink.com 1.10,2013-01-16 15:30:00,
2013-01-16 07:45:00,32.7,31.0,30.66,ESE,123,0.0,0.0,92,0.00,,,0.00,weatherlink.com 1.10,2013-01-16 15:45:00,
2013-01-16 08:00:00,32.7,31.0,30.66,ESE,123,0.0,1.0,92,0.00,,,0.00,weatherlink.com 1.10,2013-01-16 16:00:00,
2013-01-16 08:15:00,32.8,31.0,30.66,ESE,123,0.0,1.0,91,0.00,,,0.00,weatherlink.com 1.10,2013-01-16 16:15:00,
2013-01-16 08:30:00,32.8,31.0,30.66,ESE,123,0.0,1.0,91,0.00,,,0.00,weatherlink.com 1.10,2013-01-16 16:30:00,
2013-01-16 08:45:00,33.9,32.0,30.66,East,98,2.0,2.0,91,0.00,,,0.00,weatherlink.com 1.10,2013-01-16 16:45:00,
2013-01-16 09:00:00,34.0,32.0,30.65,East,82,2.0,2.0,91,0.00,,,0.00,weatherlink.com 1.10,2013-01-16 17:00:00,
2013-01-16 09:15:00,34.0,32.0,30.66,East,82,2.0,2.0,92,0.00,,,0.00,weatherlink.com 1.10,2013-01-16 17:15:00,
2013-01-16 09:30:00,34.5,33.0,30.66,East,101,2.0,2.0,93,0.00,,,0.00,weatherlink.com 1.10,2013-01-16 17:30:00,
2013-01-16 09:45:00,35.1,33.0,30.66,ESE,123,0.0,1.0,92,0.00,,,0.00,weatherlink.com 1.10,2013-01-16 17:45:00,
2013-01-16 10:00:00,34.4,32.0,30.65,ESE,123,0.0,0.0,91,0.00,,,0.00,weatherlink.com 1.10,2013-01-16 18:00:00,
2013-01-16 10:15:00,34.7,32.0,30.65,ESE,123,0.0,0.0,91,0.00,,,0.00,weatherlink.com 1.10,2013-01-16 18:15:00,
2013-01-16 10:30:00,35.1,33.0,30.65,ESE,123,0.0,0.0,92,0.00,,,0.00,weatherlink.com 1.10,2013-01-16 18:30:00,
2013-01-16 10:45:00,35.6,34.0,30.65,ESE,123,0.0,0.0,92,0.00,,,0.00,weatherlink.com 1.10,2013-01-16 18:45:00,
2013-01-16 11:01:00,36.2,34.0,30.65,ESE,123,0.0,0.0,92,0.00,,,0.00,weatherlink.com 1.10,2013-01-16 19:01:00,
2013-01-16 11:15:00,37.1,35.0,30.65,ESE,123,0.0,0.0,93,0.00,,,0.00,weatherlink.com 1.10,2013-01-16 19:15:00,
2013-01-16 11:31:00,37.6,36.0,30.63,ESE,123,0.0,0.0,92,0.00,,,0.00,weatherlink.com 1.10,2013-01-16 19:31:00,
2013-01-16 11:46:00,38.1,36.0,30.62,ESE,123,0.0,0.0,92,0.00,,,0.00,weatherlink.com 1.10,2013-01-16 19:46:00,
2013-01-16 12:01:00,38.9,37.0,30.61,SE,143,0.0,1.0,92,0.00,,,0.00,weatherlink.com 1.10,2013-01-16 20:01:00,
2013-01-16 12:16:00,40.0,37.0,30.61,SSE,160,2.0,2.0,89,0.00,,,0.00,weatherlink.com 1.10,2013-01-16 20:16:00,
2013-01-16 12:31:00,40.7,38.0,30.60,SSE,160,0.0,1.0,88,0.00,,,0.00,weatherlink.com 1.10,2013-01-16 20:31:00,
2013-01-16 12:46:00,41.3,37.0,30.60,South,181,1.0,2.0,86,0.00,,,0.00,weatherlink.com 1.10,2013-01-16 20:46:00,
2013-01-16 13:01:00,41.8,37.0,30.59,South,180,0.0,1.0,84,0.00,,,0.00,weatherlink.com 1.10,2013-01-16 21:01:00,
2013-01-16 13:16:00,42.4,38.0,30.59,South,181,0.0,2.0,84,0.00,,,0.00,weatherlink.com 1.10,2013-01-16 21:16:00,
2013-01-16 13:31:00,43.0,38.0,30.58,South,181,0.0,1.0,83,0.00,,,0.00,weatherlink.com 1.10,2013-01-16 21:31:00,
2013-01-16 13:46:00,43.8,39.0,30.58,South,181,0.0,1.0,83,0.00,,,0.00,weatherlink.com 1.10,2013-01-16 21:46:00,
2013-01-16 14:01:00,45.7,40.0,30.58,South,181,0.0,2.0,80,0.01,,,0.01,weatherlink.com 1.10,2013-01-16 22:01:00,
2013-01-16 14:16:00,45.9,39.0,30.57,South,181,0.0,2.0,77,0.01,,,0.01,weatherlink.com 1.10,2013-01-16 22:16:00,
2013-01-16 14:31:00,45.4,39.0,30.57,South,181,0.0,2.0,79,0.01,,,0.01,weatherlink.com 1.10,2013-01-16 22:31:00,
2013-01-16 14:46:00,45.8,40.0,30.56,South,181,0.0,0.0,79,0.01,,,0.01,weatherlink.com 1.10,2013-01-16 22:46:00,
2013-01-16 15:01:00,45.7,40.0,30.57,South,181,0.0,1.0,79,0.00,,,0.01,weatherlink.com 1.10,2013-01-16 23:01:00,
2013-01-16 15:16:00,45.5,40.0,30.57,South,181,0.0,0.0,80,0.00,,,0.01,weatherlink.com 1.10,2013-01-16 23:16:00,
2013-01-16 15:31:00,45.2,40.0,30.56,South,181,0.0,0.0,81,0.00,,,0.01,weatherlink.com 1.10,2013-01-16 23:31:00,
2013-01-16 15:46:00,44.9,40.0,30.56,South,181,0.0,0.0,82,0.00,,,0.01,weatherlink.com 1.10,2013-01-16 23:46:00,
2013-01-16 16:01:00,44.4,40.0,30.56,South,181,0.0,0.0,83,0.00,,,0.01,weatherlink.com 1.10,2013-01-17 00:01:00,
2013-01-16 16:16:00,43.9,39.0,30.56,South,181,0.0,0.0,84,0.00,,,0.01,weatherlink.com 1.10,2013-01-17 00:16:00,
2013-01-16 16:31:00,43.2,39.0,30.57,South,181,0.0,0.0,85,0.00,,,0.01,weatherlink.com 1.10,2013-01-17 00:31:00,
2013-01-16 16:46:00,42.4,38.0,30.56,South,181,0.0,2.0,85,0.00,,,0.01,weatherlink.com 1.10,2013-01-17 00:46:00,
2013-01-16 17:01:00,41.4,37.0,30.56,South,181,0.0,1.0,85,0.00,,,0.01,weatherlink.com 1.10,2013-01-17 01:01:00,
2013-01-16 17:16:00,40.5,36.0,30.56,South,181,0.0,0.0,84,0.00,,,0.01,weatherlink.com 1.10,2013-01-17 01:16:00,
2013-01-16 17:31:00,40.0,35.0,30.55,South,181,0.0,2.0,82,0.00,,,0.01,weatherlink.com 1.10,2013-01-17 01:31:00,
2013-01-16 17:46:00,39.6,34.0,30.55,South,181,1.0,1.0,81,0.00,,,0.01,weatherlink.com 1.10,2013-01-17 01:46:00,
2013-01-16 18:01:00,39.3,34.0,30.55,South,181,0.0,0.0,80,0.00,,,0.01,weatherlink.com 1.10,2013-01-17 02:01:00,
2013-01-16 18:16:00,38.9,33.0,30.55,South,181,0.0,2.0,79,0.00,,,0.01,weatherlink.com 1.10,2013-01-17 02:16:00,
2013-01-16 18:31:00,39.1,32.0,30.55,South,181,0.0,2.0,77,0.00,,,0.01,weatherlink.com 1.10,2013-01-17 02:31:00,
2013-01-16 18:46:00,39.2,33.0,30.55,South,181,1.0,2.0,78,0.00,,,0.01,weatherlink.com 1.10,2013-01-17 02:46:00,
2013-01-16 19:01:00,39.4,32.0,30.55,South,181,1.0,2.0,75,0.00,,,0.01,weatherlink.com 1.10,2013-01-17 03:01:00,
2013-01-16 19:16:00,39.8,31.0,30.55,South,181,0.0,2.0,72,0.00,,,0.01,weatherlink.com 1.10,2013-01-17 03:16:00,
2013-01-16 19:31:00,40.1,31.0,30.55,South,181,0.0,0.0,69,0.00,,,0.01,weatherlink.com 1.10,2013-01-17 03:31:00,
2013-01-16 19:46:00,40.6,30.0,30.55,South,181,0.0,1.0,65,0.00,,,0.01,weatherlink.com 1.10,2013-01-17 03:46:00,
2013-01-16 20:01:00,40.5,29.0,30.55,South,181,0.0,0.0,64,0.00,,,0.01,weatherlink.com 1.10,2013-01-17 04:01:00,
2013-01-16 20:16:00,40.1,31.0,30.55,South,181,0.0,0.0,69,0.00,,,0.01,weatherlink.com 1.10,2013-01-17 04:16:00,
2013-01-16 20:31:00,39.4,30.0,30.55,South,181,0.0,0.0,68,0.00,,,0.01,weatherlink.com 1.10,2013-01-17 04:31:00,
2013-01-16 20:46:00,39.0,30.0,30.54,South,181,0.0,0.0,69,0.00,,,0.01,weatherlink.com 1.10,2013-01-17 04:46:00,
2013-01-16 21:16:00,39.7,29.0,30.54,South,181,0.0,0.0,65,0.00,,,0.01,weatherlink.com 1.10,2013-01-17 05:16:00,
2013-01-16 21:32:00,40.2,29.0,30.53,South,181,0.0,0.0,64,0.00,,,0.01,weatherlink.com 1.10,2013-01-17 05:32:00,
2013-01-16 21:47:00,40.6,30.0,30.53,South,181,0.0,0.0,66,0.00,,,0.01,weatherlink.com 1.10,2013-01-17 05:47:00,
2013-01-16 22:02:00,40.4,29.0,30.52,SE,125,2.0,3.0,65,0.00,,,0.01,weatherlink.com 1.10,2013-01-17 06:02:00,
2013-01-16 22:17:00,40.0,30.0,30.52,SE,125,0.0,2.0,68,0.00,,,0.01,weatherlink.com 1.10,2013-01-17 06:17:00,
2013-01-16 22:32:00,39.7,29.0,30.51,SE,125,0.0,1.0,67,0.00,,,0.01,weatherlink.com 1.10,2013-01-17 06:32:00,
2013-01-16 22:47:00,39.3,29.0,30.51,SE,125,0.0,0.0,67,0.00,,,0.01,weatherlink.com 1.10,2013-01-17 06:47:00,
2013-01-16 23:02:00,39.1,31.0,30.51,SE,125,0.0,0.0,72,0.00,,,0.01,weatherlink.com 1.10,2013-01-17 07:02:00,
2013-01-16 23:17:00,38.5,29.0,30.51,SE,125,0.0,0.0,69,0.00,,,0.01,weatherlink.com 1.10,2013-01-17 07:17:00,
2013-01-16 23:32:00,38.4,29.0,30.50,SE,125,0.0,0.0,68,0.00,,,0.01,weatherlink.com 1.10,2013-01-17 07:32:00,
2013-01-16 23:47:00,39.3,29.0,30.50,ESE,111,0.0,1.0,67,0.00,,,0.01,weatherlink.com 1.10,2013-01-17 07:47:00,